Weather observations for the past three days for
Waterville, Waterville Robert LaFleur Airport
Metric (Imperial)
Date Time (edt) Wind (kph) Vis. (km) Weather Sky Cond. Temperature (ºC) Relative Humidity Wind Chill (°C) Heat Index (°C) Pressure Precipitation (cm)
Air Dwpt 6 hour altimeter (cm) sea level (mb) 1 hr 3 hr 6 hr
Max. Min.
07 14:56 W 19 16.09 Overcast BKN060 OVC080 16.1 2.8 41% 75.18 1002.9
07 13:56 W 19 G 28 16.09 Partly Cloudy SCT080 16.1 3.3 16.7 10 43% 75.21 1003.3
07 12:56 W 17 16.09 Overcast FEW048 OVC085 15 2.8 44% 75.23 1003.7
07 11:56 W 13 16.09 Partly Cloudy SCT045 SCT080 15 3.9 48% 75.31 1004.5
07 10:56 Vrbl 6 16.09 A Few Clouds FEW037 13.3 3.9 53% 75.34 1004.9
07 09:56 W 9 16.09 Fair CLR 12.8 5 59% 75.39 1005.5
07 08:56 NW 9 16.09 Fair CLR 11.1 5 66% 75.39 1005.7
07 07:56 NW 17 16.09 A Few Clouds FEW110 10 4.4 10 7.2 68% 8 75.41 1006.0
07 06:56 W 7 16.09 A Few Clouds FEW100 8.9 5 77% 8 75.41 1006.1
07 05:56 NW 6 16.09 Mostly Cloudy BKN090 7.2 6.1 93% 75.36 1005.2
07 04:56 Calm 16.09 Overcast OVC060 7.2 6.7 97% 75.39 1005.7
07 03:56 N 11 16.09 Overcast OVC055 8.3 6.7 90% 7 75.36 1005.2
07 02:56 N 7 16.09 Overcast OVC050 8.9 8.3 96% 8 75.34 1004.9
07 01:56 N 11 16.09 Light Rain BKN050 OVC060 8.9 8.3 12.8 8.9 96% 7 75.29 1004.2
07 00:56 N 15 16.09 Rain BKN008 OVC012 9.4 8.9 97% 7 75.34 1004.8
06 23:56 N 20 9.66 Light Rain Fog/Mist OVC004 10.6 10 96% 75.29 1004.1
06 22:56 SW 13 8.05 Light Rain Fog/Mist OVC004 12.2 11.7 97% 75.21 1003.3
06 21:56 S 13 12.87 Light Rain OVC004 12.2 12.2 100% 75.21 1003.2
06 20:56 S 19 G 35 12.87 Overcast OVC004 12.8 12.8 100% 75.29 1004.0
06 19:56 S 17 G 33 12.87 Overcast OVC004 12.8 12.2 15.6 12.2 96% 75.29 1004.3
06 18:56 S 13 G 30 16.09 Light Rain OVC004 12.2 11.7 97% 75.34 1004.9
06 17:56 SW 20 12.87 Light Rain OVC004 12.8 12.2 96% 75.39 1005.5
06 16:56 S 15 G 31 9.66 Light Rain Fog/Mist BKN006 BKN011 OVC060 12.8 12.2 96% 75.39 1005.5
06 15:56 S 20 G 31 9.66 Rain Fog/Mist BKN010 BKN022 OVC065 13.3 12.2 93% 75.41 1005.9
06 14:56 S 9 8.05 Light Rain Fog/Mist FEW018 OVC070 13.9 12.8 93% 75.44 1006.1
06 13:56 S 15 16.09 Light Rain FEW021 BKN075 BKN100 15.6 12.2 17.2 13.3 80% 75.46 1006.4
06 12:56 SW 11 16.09 Mostly Cloudy SCT022 BKN032 BKN100 16.1 12.2 78% 75.54 1007.5
06 11:56 S 17 16.09 Fair CLR 17.2 12.2 73% 75.59 1008.2
06 10:56 S 7 16.09 Fair CLR 16.7 11.7 73% 75.57 1007.8
06 09:56 S 11 16.09 Fair CLR 15 10.6 75% 75.64 1008.8
06 08:56 Calm 16.09 Fair CLR 14.4 10 75% 75.64 1008.8
06 07:56 Vrbl 7 16.09 Mostly Cloudy BKN120 13.3 9.4 13.3 11.1 77% 75.67 1009.4
06 06:56 Calm 16.09 Overcast OVC033 12.2 9.4 83% 75.67 1009.4
06 05:56 S 7 16.09 Mostly Cloudy BKN110 11.1 8.9 86% 75.69 1009.5
06 04:56 S 6 16.09 Light Rain OVC100 11.7 8.9 83% 75.64 1008.8
06 03:56 SW 6 16.09 Fair CLR 11.7 8.9 83% 75.67 1009.2
06 02:56 S 9 16.09 Partly Cloudy SCT100 12.2 8.9 80% 75.57 1007.8
06 01:56 S 7 16.09 Fair CLR 12.8 8.9 17.8 12.8 77% 75.54 1007.6
06 00:56 S 11 16.09 Fair CLR 13.3 9.4 77% 75.54 1007.7
05 23:56 S 7 16.09 Mostly Cloudy BKN075 13.9 10 78% 75.51 1007.2
05 22:56 SW 7 16.09 Overcast OVC075 14.4 10 75% 75.51 1007.3
05 21:56 Vrbl 11 14.48 Light Rain OVC080 15.6 10 70% 75.54 1007.5
05 20:56 S 6 16.09 Overcast OVC110 16.7 13.3 80% 75.46 1006.5
05 19:56 SW 7 16.09 Overcast FEW046 BKN070 OVC090 17.8 12.8 23.9 17.8 73% 75.46 1006.4
05 18:56 SW 20 G 43 16.09 Mostly Cloudy SCT055 BKN095 18.9 9.4 54% 75.41 1005.9
05 17:56 S 28 G 41 16.09 Fair CLR 20 9.4 51% 75.18 1002.9
05 16:56 S 24 G 52 16.09 Fair CLR 21.7 10 47% 75.18 1002.8
05 15:56 S 24 G 46 16.09 Fair CLR 22.8 10 44% 75.21 1003.0
05 14:56 S 22 G 43 16.09 Fair CLR 23.9 10.6 43% 25 75.23 1003.5
05 13:56 S 22 G 33 16.09 Fair CLR 22.8 10 22.8 12.8 44% 75.29 1004.1
05 12:56 SW 24 G 35 16.09 Fair CLR 21.7 9.4 46% 75.36 1005.2
05 11:56 S 17 G 26 16.09 Fair CLR 21.1 9.4 47% 75.41 1005.8
05 10:56 S 15 G 26 16.09 Fair CLR 20 8.3 47% 75.46 1006.5
05 09:56 SW 13 G 28 16.09 Fair CLR 18.3 7.8 51% 75.49 1006.8
05 08:56 SW 17 16.09 Mostly Cloudy BKN110 15.6 7.2 58% 75.49 1007.0
05 07:56 S 13 16.09 Fair CLR 12.8 6.7 12.8 7.8 67% 75.54 1007.5
05 06:56 SW 17 16.09 Fair CLR 10.6 6.1 74% 75.54 1007.5
05 05:56 S 9 16.09 Fair CLR 8.9 5.6 80% 8 75.51 1007.3
05 04:56 S 11 16.09 Fair CLR 9.4 5.6 77% 8 75.54 1007.5
05 03:56 SW 9 16.09 Fair CLR 7.8 5 83% 6 75.54 1007.7
05 02:56 S 7 16.09 Fair CLR 8.9 5 77% 8 75.51 1007.5
05 01:56 SW 9 16.09 Fair CLR 7.8 5 14.4 7.8 83% 6 75.51 1007.5
05 00:56 SW 11 16.09 Fair CLR 8.3 5.6 83% 7 75.51 1007.3
04 23:56 S 7 16.09 Fair CLR 10 5.6 74% 9 75.49 1007.0
04 22:56 Calm 16.09 Partly Cloudy SCT120 10.6 6.1 74% 75.49 1007.0
04 21:56 Calm 16.09 Overcast OVC085 10.6 6.1 74% 75.49 1007.1
04 20:56 Calm 16.09 Fair CLR 12.8 5 59% 75.44 1006.5
04 19:56 Calm 16.09 Fair CLR 14.4 5 17.8 11.7 53% 75.39 1005.5
04 18:56 W 6 16.09 Overcast OVC085 16.7 5 46% 75.36 1005.1
04 17:56 W 7 16.09 Overcast BKN060 OVC075 17.2 5.6 47% 75.36 1005.1
04 16:56 W 24 G 31 16.09 Partly Cloudy SCT060 16.7 5.6 48% 75.34 1004.9
04 15:56 SW 26 G 33 16.09 Partly Cloudy SCT055 16.7 6.1 50% 75.31 1004.7
Date Time (edt) Wind (kph) Vis. (km) Weather Sky Cond. Air Dwpt Max. Min. Relative Humidity Wind Chill (°C) Heat Index (°C) altimeter (cm) sea level (mb) 1 hr 3 hr 6 hr
6 hour
Temperature (ºC) Pressure Precipitation (cm)